Tracking 22458 objects as of 2-Mar-2021
HD Live streaming from Space Station
objects crossing your sky now

BREEZE-M DEB

Track BREEZE-M DEB now!
10-day predictions


NORAD ID: 45492
Int'l Code: 2012-044DZ
Perigee: 263.9 km
Apogee: 2,509.4 km
Inclination: 50.0 °
Period: 113.3 minutes
Semi major axis: 7757 km
RCS: Unknown
Launch date: August 6, 2012
Source: Commonwealth of Independent States (former USSR) (CIS)
Launch site: TYURATAM MISSILE AND SPACE COMPLEX (TTMTR)

Note: This is SATELLITE DEBRIS
aabbcc
Your satellite tracking list
Your tracking list is empty




NASA's NSSDC Master Catalog

Two Line Element Set (TLE):
1 45492U 12044DZ  21059.91892841  .00027562  53787-5  45429-3 0  9998
2 45492  50.0269 325.9779 1447304 174.9269 186.8242 12.70605739276669
Source of the keplerian elements: AFSPC